TimeCST,TemperatureF,Dew PointF,Humidity,Sea Level PressureIn,VisibilityMPH,Wind Direction,Wind SpeedMPH,Gust SpeedMPH,PrecipitationIn,Events,Conditions,WindDirDegrees,DateUTC
12:58 AM,46.9,36.0,66,30.30,10.0,NE,4.6,-,N/A,,Clear,40,2012-11-18 06:58:00
1:58 AM,46.0,36.0,68,30.29,10.0,NE,6.9,-,N/A,,Scattered Clouds,40,2012-11-18 07:58:00
2:58 AM,46.0,35.1,66,30.29,10.0,NE,3.5,-,N/A,,Clear,40,2012-11-18 08:58:00
3:58 AM,45.0,35.1,68,30.30,10.0,North,3.5,-,N/A,,Scattered Clouds,10,2012-11-18 09:58:00
4:58 AM,42.1,35.1,76,30.31,10.0,North,4.6,-,N/A,,Clear,10,2012-11-18 10:58:00
5:58 AM,44.1,36.0,73,30.31,10.0,NNE,6.9,-,N/A,,Overcast,30,2012-11-18 11:58:00
6:58 AM,45.0,36.0,71,30.33,10.0,NNE,4.6,-,N/A,,Partly Cloudy,20,2012-11-18 12:58:00
7:58 AM,50.0,37.9,63,30.33,10.0,NE,6.9,-,N/A,,Clear,40,2012-11-18 13:58:00
8:58 AM,55.0,41.0,59,30.33,10.0,ENE,9.2,16.1,N/A,,Clear,60,2012-11-18 14:58:00
9:58 AM,59.0,42.1,53,30.32,10.0,East,12.7,-,N/A,,Partly Cloudy,80,2012-11-18 15:58:00
10:58 AM,62.1,42.1,48,30.31,10.0,NE,8.1,-,N/A,,Clear,40,2012-11-18 16:58:00
11:58 AM,66.0,43.0,43,30.29,10.0,ENE,5.8,-,N/A,,Clear,70,2012-11-18 17:58:00
12:58 PM,68.0,44.1,42,30.26,10.0,NNE,9.2,-,N/A,,Clear,20,2012-11-18 18:58:00
1:58 PM,69.1,44.1,40,30.25,10.0,NE,8.1,-,N/A,,Clear,40,2012-11-18 19:58:00
2:58 PM,68.0,45.0,43,30.25,10.0,NE,9.2,-,N/A,,Clear,40,2012-11-18 20:58:00
3:58 PM,64.9,46.0,50,30.25,10.0,NE,5.8,-,N/A,,Clear,40,2012-11-18 21:58:00
4:58 PM,57.0,46.9,69,30.26,10.0,North,3.5,-,N/A,,Clear,10,2012-11-18 22:58:00
5:58 PM,54.0,46.0,75,30.28,10.0,Calm,Calm,-,N/A,,Clear,0,2012-11-18 23:58:00
6:58 PM,54.0,45.0,72,30.28,10.0,North,4.6,-,N/A,,Clear,350,2012-11-19 00:58:00
7:58 PM,55.9,45.0,67,30.28,10.0,NNW,4.6,-,N/A,,Clear,340,2012-11-19 01:58:00
8:58 PM,54.0,44.1,69,30.29,10.0,NNW,4.6,-,N/A,,Clear,340,2012-11-19 02:58:00
9:58 PM,52.0,44.1,74,30.30,10.0,North,3.5,-,N/A,,Clear,360,2012-11-19 03:58:00
10:58 PM,48.9,43.0,80,30.29,10.0,North,3.5,-,N/A,,Clear,360,2012-11-19 04:58:00
11:58 PM,46.0,42.1,86,30.29,10.0,North,3.5,-,N/A,,Clear,360,2012-11-19 05:58:00